Flag for Switzerland Weather past 2 weeks in Uster, Zurich, Switzerland

Now
62 °F

Cool.


Feels Like: 62 °F
Forecast: 56 / 69 °F
Wind: 2 mph from Southeast

Location: Zurich Town / Ville.

Current Time: Sep 21, 2014 at 12:44:34 AM

Latest Report: Sep 21, 2014 at 12:00 AM


Visibility: N/A

Pressure: 30.04 "Hg

Humidity: 85%

Dew point: 57 °F

Location of UsterLocation

Historic Weather in Uster — Graph

°F

Uster temperature yesterday

Maximum temperature yesterday: 73 °F (at 3:00 PM)
Minimum temperature yesterday: 60 °F (at 5:00 AM)
Average temperature yesterday: 64 °F

Past Weeks' High & Low Weather Summary

 TemperatureHumidityPressure
High80 °F (Sep 8, 3:00 PM)100% (Sep 16, 7:00 AM)30.16 "Hg (Sep 16, 7:00 AM)
Low49 °F (Sep 12, 6:00 AM)47% (Sep 7, 4:00 PM)29.81 "Hg (Sep 17, 5:00 PM)
Average62 °F82%29.98 "Hg
* Reported Sep 5 11:00 PM — Sep 20 11:00 PM, Uster, Weather by CustomWeather, © 2014

Note: Actual official high and low records may vary slightly from our data, if they occured in-between our weather recording intervals... More about our weather records

Advertising

Uster weather history for previous 24 hours

 ConditionsComfort  
Time TempWeatherWind HumidityBarometerVisibility
11:00 PM
Sep 20
62 °FCool.1 mph86%30.03 "HgN/A
10:00 PM65 °FMild.3 mph75%30.02 "HgN/A
9:00 PM65 °FMild.2 mph78%30.02 "HgN/A
8:00 PM64 °FOvercast.2 mph83%30.00 "HgN/A
7:00 PM68 °FMild.3 mph70%29.98 "HgN/A
3:00 PM73 °FMild.7 mph62%29.97 "HgN/A
2:00 PM69 °FMild.3 mph70%29.99 "HgN/A
1:00 PM68 °FMild.3 mph76%30.01 "HgN/A
12:00 PM66 °FMild.3 mph80%30.01 "HgN/A
11:00 AM66 °FMild.3 mph89%30.01 "HgN/A
10:00 AM63 °FMild.1 mph92%30.01 "HgN/A
9:00 AM61 °FCool.2 mph95%30.01 "HgN/A
8:00 AM61 °FScattered clouds.3 mph95%30.01 "HgN/A
7:00 AM60 °FCool.3 mph95%30.00 "HgN/A
6:00 AM60 °FCool.3 mph96%29.99 "HgN/A
5:00 AM60 °FCool.1 mph97%30.00 "HgN/A
4:00 AM61 °FCool.3 mph93%30.01 "HgN/A
3:00 AM61 °FCool.1 mph95%30.00 "HgN/A
2:00 AM61 °FCool.1 mph95%30.00 "HgN/A
1:00 AM61 °FCool.3 mph95%30.00 "HgN/A
12:00 AM62 °FCool.6 mph87%30.00 "HgN/A
Weather by CustomWeather, © 2014

See weather overviewHow to use our weather pages